Regional Weather Roundup
Issued by NWS Grand Forks, ND

Home | Current Version | Previous Version | Text Only | Print | Product List | Glossary On
Versions: 1 2 3 4 5 6 7 8 9 10 11 12 13 14 15 16 17 18 19 20 21 22 23 24 25 26 27 28 29 30 31 32 33 34 35 36 37 38 39 40 41 42 43 44 45 46 47 48 49 50
000
ASUS43 KFGF 060410
RWRFGF
PRAIRIE TO PINES  WEATHER ROUNDUP
NATIONAL WEATHER SERVICE EASTERN NORTH DAKOTA/GRAND FORKS ND
1100 PM CDT THU MAY 05 2016

 **SATELLITE DATA USED TO AUGMENT SKY COVER AT AUTOMATED STATIONS**
 *****  WEATHER ACROSS EASTERN NORTH DAKOTA  *****

CITY           SKY/WX    TMP DP  RH WIND       PRES   REMARKS
GRAND FORKS    PTCLDY    60  41  49 SW8       29.71S
GRAND FRKS AFB PTCLDY    66  39  37 SW9       29.72S
DEVILS LAKE    CLOUDY    71  43  36 SW13      29.74S
FARGO          CLEAR     72  40  31 S13       29.76S
WAHPETON ARPT  NOT AVBL
$$

 ***** WEATHER ACROSS CENTRAL AND WESTERN NORTH DAKOTA  *****

CITY           SKY/WX    TMP DP  RH WIND       PRES   REMARKS
BISMARCK       CLOUDY    63  47  55 SE5       29.79R
MINOT          PTCLDY    74  39  28 SW7       29.73R
JAMESTOWN      CLEAR     71  46  40 SW7       29.79R
MINOT AFB      CLEAR     67  40  37 SW9       29.71S
GARRISON         N/A     62  40  44 CALM      29.77R
WILLISTON      CLOUDY    71  39  31 NW13      29.76R
DICKINSON      CLEAR     58  40  51 S10       29.80R
HETTINGER      CLEAR     60  48  64 CALM      29.85R
$$

 *****  OTHER AIRPORT OBSERVATIONS IN OUR AREA  *****

CITY           SKY/WX    TMP DP  RH WIND       PRES   REMARKS
WALHALLA       FAIR      75  39  27 SW10      29.67F
GRAFTON AIRPOR FAIR      66  39  37 SW12      29.71S
VALLEY CITY AR FAIR      70  43  37 SW16      29.80S
CANDO          FAIR      66  41  39 SW9       29.74S
CAVALIER APRT  FAIR      73  39  29 SW9       29.68S
GWINNER        FAIR      68  43  40 S14       29.82S
SHEYENNE NWR     N/A     67  42  39 S8        29.95S
ROLLA          FAIR      68  39  34 SW14      29.73S
 ***** THE ABOVE OBSERVATIONS ARE NON NWS ARE NOT QUALITY
       CONTROLLED AND MAY MIS-REPORT RAIN FOR SNOW...
$$

  *****  WEATHER ACROSS NORTHERN MINNESOTA  *****

CITY           SKY/WX    TMP DP  RH WIND       PRES   REMARKS
FLAG ISLAND    CLOUDY    64  37  36 S5        29.66S
WARROAD        CLEAR     72  46  40 SW8       29.69S
ROSEAU         CLEAR     72  43  35 SW10      29.69S
HALLOCK        CLEAR     72  32  23 SW9       29.67S
THF RVR FALLS  CLOUDY    70  32  24 SW7       29.74F
BAUDETTE       CLEAR     69  38  32 SW7       29.70S
WASKISH        CLEAR     73  39  29 SW8       29.73S
CROOKSTON      CLEAR     66  36  32 S9        29.74S
STEPHEN NDAWN    N/A     72  36  26 SW9         N/A
GREENBUSH NDAW   N/A     72  37  28 SW9         N/A
$$
  *****  WEATHER ACROSS CENTRAL AND WEST MINNESOTA  *****

CITY           SKY/WX    TMP DP  RH WIND       PRES   REMARKS
FOSSTON        CLEAR     63  36  36 S7        29.78S
BEMIDJI        CLEAR     71  38  30 SW7       29.78S
PARK RAPIDS    CLEAR     69  39  33 SW9       29.81S
ELBOW LAKE     FAIR      63  42  47 S9        29.86S
WADENA         CLEAR     68  43  40 SW8       29.84S
DETROIT LAKES  CLEAR     72  37  28 SW10      29.83S
MOORHEAD       CLEAR     72  39  30 S9        29.78F
FERGUS FALLS   CLEAR     66  43  42 S9        29.81R
MORRIS MN      CLEAR     66  43  42 S9        29.86S
STAPLES        CLEAR     70  39  32 SW10      29.84S
$$
  *****  WEATHER ELSEWHERE ACROSS MINNESOTA  *****

CITY           SKY/WX    TMP DP  RH WIND       PRES   REMARKS
DULUTH         CLEAR     68  41  37 SW14      29.79F
INTRNTL FALLS  CLEAR     58  46  64 SW5       29.70F
ELY            CLEAR     66  41  39 S6        29.75F
CLOQUET        CLEAR     66  37  34 SW7       29.80F
WHEATON        CLEAR     68  45  42 S10       29.86S
BRAINERD       CLEAR     66  44  45 S8        29.84R
HIBBING        PTCLDY    65  42  43 SW3       29.77S
ALEXANDRIA     CLEAR     65  41  41 SW9       29.89R
SAINT CLOUD    CLEAR     68  43  40 SW8       29.86S
MINNEAPOLIS    CLEAR     69  40  34 SW7       29.88S
$$

  *****  WEATHER ACROSS SOUTH DAKOTA  *****

CITY           SKY/WX    TMP DP  RH WIND       PRES   REMARKS
SIOUX FALLS    CLEAR     65  44  46 S13       29.93S
BROOKINGS      CLEAR     64  45  49 S13       29.92R
WATERTOWN      CLEAR     63  43  48 S8        29.90R
HURON          CLEAR     67  46  47 S12       29.86R
SISSETON         N/A     71  42  35 SW14      29.83S
ABERDEEN       CLEAR     61  42  49 S12       29.84R
MITCHELL       CLEAR     64  48  56 S10       29.89R
PIERRE         PTCLDY    68  51  54 SE14      29.79S
MOBRIDGE       PTCLDY    66  52  60 SE8       29.79S
RAPID CITY     PTCLDY    55  43  63 CALM      29.88R
$$

  *****  SOME WEATHER IN NEARBY STATES *****

CITY           SKY/WX    TMP DP  RH WIND       PRES   REMARKS
GLASGOW MT     CLOUDY    66  47  50 NW8       29.82R HAZE
GREAT FALLS MT PTCLDY    59  41  51 N13       30.02R
CHEYENNE WY    CLOUDY    59  35  40 SW7       30.08R
SCOTTSBLUFF NE CLOUDY    61  42  49 E8        29.96R
OMAHA NE       PTCLDY    61  47  59 SE7       30.00S
DES MOINES IA  CLEAR     58  38  47 S7        30.01R
DAVENPORT IA   CLEAR     51  38  60 S3        30.01S
CHICAGO IL     CLEAR     48  38  68 CALM      29.99R
EAU CLAIRE WI  CLEAR     59  39  47 S5        29.89F
LA CROSSE WI   CLEAR     60  44  55 S7        29.93S
$$

  *****  SOME NATIONAL WEATHER *****

CITY           SKY/WX    TMP DP  RH WIND       PRES   REMARKS
LA GUARDIA NY  CLOUDY    53  47  79 NE16      29.68S
RALEIGH NC     LGT RAIN  49  48  97 CALM      29.67S FOG
ATLANTA GA     PTCLDY    50  37  61 NW13      29.88R
NEW ORLEANS LA PTCLDY    71  46  40 N14       29.98R
OKLAHOMA CITY  PTCLDY    62  47  57 CALM      30.06R
ALBUQUERQUE NM PTCLDY    66  24  20 SE7       30.02R
SALT LAKE CITY MOCLDY    70  42  36 CALM      29.78R
LOS ANGELES CA MOCLDY    62  52  69 W9        29.87R
BOISE ID       MOCLDY    66  45  46 N14       29.79R
SEATTLE WA     PTCLDY    61  49  64 N10       30.04R
$$

*** WEATHER ACROSS MANITOBA...SASKATCHEWAN AND ONTARIO ***
                ***ONTARIO***

CITY           SKY/WX    TMP DP  RH WIND       PRES   REMARKS
GERALDTON      PTCLDY    43  32  65 S6        29.81R
THUNDER BAY    PTCLDY    39  36  87 W3        29.78F
SIOUX LOOKOUT  MOCLDY    63  45  51 S6        29.66F
TORONTO        PTCLDY    54  37  54 N18G25    29.82S
BIG TROUT LK   MOCLDY    34  19  55 E9G20     29.86F
PICKLE LAKE    NOT AVBL
DRYDEN         PTCLDY    70  45  40 S10       29.66F
KENORA         PTCLDY    72  39  30 S7        29.66F
$$
                *** MANITOBA***

CITY           SKY/WX    TMP DP  RH WIND       PRES   REMARKS
BRANDON        MOCLDY    77  43  29 W14       29.66R
DAUPHIN        MOCLDY    73  41  31 SE6       29.62R
ISLAND LAKE    MOCLDY    46  32  57 E7G18     29.67F
PILOT MOUND    NOT AVBL
THE PAS        CLOUDY    54  39  58 N3        29.78R
THOMPSON       NOT AVBL
WINNIPEG       PTCLDY    75  39  27 W8        29.62F
LYNN LAKE      CLOUDY    39  36  87 E3        29.83R
CHURCHILL      CLOUDY    25  21  86 SE10      30.00F WCI  15
GILLAM         CLOUDY    27  21  80 E9G17     29.89F WCI  17
$$
                ***SASKATCHEWAN***

CITY           SKY/WX    TMP DP  RH WIND       PRES   REMARKS
ESTEVAN        PTCLDY    61  39  44 NW8       29.74R
KINDERSLEY     MOCLDY    50  37  62 NW12G17   30.04R
LLOYDMINSTER   PTCLDY    45  41  87 W10       30.04R
PRINCE ALBERT  CLOUDY    54  41  62 N12       29.93R
REGINA         MOCLDY    68  45  42 NW13      29.80R
YORKTON        CLEAR     70  43  37 NW17      29.67R
N. BATTLEFORD  PTCLDY    52  37  58 NW13G20   30.03R
LA RONGE       PTCLDY    48  45  87 W7        29.92R
SASKATOON      MOCLDY    55  41  58 N15       29.96R
SWIFT CURRENT  CLOUDY    59  41  51 N15G25    29.95S HAZE
$$
NOTE: THESE ARE AUTOMATED STATIONS WITH LIMITED QUALITY CONTROL
      "FAIR" INDICATES FEW OR NO CLOUDS BELOW 12,000 FEET WITH NO
      SIGNIFICANT WEATHER AND/OR OBSTRUCTIONS TO VISIBILITY.
      SKY/WX - SKY CONDITION AND SIGNIFICANT WEATHER.
      TMP - AIR TEMPERATURE.    DP   - DEWPOINT TEMPERATURE.
      RH  - RELATIVE HUMIDITY.  PRES - PRESSURE.
      HX  - HEAT INDEX.         WCI  - WIND CHILL INDEX.
$



USA.gov is the U.S. government's official web portal to all federal, state and local government web resources and services.